Flag for Switzerland Weather past 2 weeks in Burgdorf, Bern, Switzerland

Now
57 °F

Clear.


Feels Like: 57 °F
Forecast: 60 / 91 °F
Wind: 1 mph from North

Location: Bern / Belp

Current Time: Jul 1, 2015 at 4:24:48 AM

Latest Report: Jul 1, 2015 at 3:50 AM


Visibility: 10 mi

Pressure: 30.09 "Hg

Humidity: 100%

Dew point: 57 °F

Location of BurgdorfLocation

Historic Weather in Burgdorf — Graph

°F

Burgdorf temperature yesterday

Maximum temperature yesterday: 86 °F (at 2:50 PM)
Minimum temperature yesterday: 54 °F (at 5:20 AM)
Average temperature yesterday: 71 °F

Past Weeks' High & Low Weather Summary

 TemperatureHumidityPressure
High86 °F (Jun 30, 2:50 PM)100% (Jun 16, 3:20 AM)30.24 "Hg (Jun 16, 3:20 AM)
Low43 °F (Jun 24, 4:50 AM)24% (Jun 26, 5:20 PM)29.77 "Hg (Jun 22, 9:20 PM)
Average63 °F72%30.11 "Hg
* Reported Jun 16 3:20 AM — Jul 1 3:20 AM, Burgdorf, Weather by CustomWeather, © 2015

Note: Actual official high and low records may vary slightly from our data, if they occured in-between our weather recording intervals... More about our weather records

Advertising

Burgdorf weather history for previous 24 hours

 ConditionsComfort  
Time TempWeatherWind HumidityBarometerVisibility
3:20 AM
Wed, Jul 1
59 °FClear.1 mph94%30.09 "Hg10 mi
2:50 AM59 °FClear.1 mph94%30.09 "Hg10 mi
2:20 AM59 °FClear.2 mph94%30.09 "Hg10 mi
1:50 AM61 °FClear.1 mph94%30.09 "Hg10 mi
1:20 AM61 °FClear.No wind94%30.09 "Hg10 mi
12:50 AM61 °FClear.2 mph94%30.09 "Hg10 mi
12:20 AM63 °FClear.2 mph88%30.09 "Hg10 mi
11:50 PM
Tue, Jun 30
64 °FClear.3 mph88%30.09 "Hg10 mi
11:20 PM64 °FClear.3 mph88%30.09 "Hg10 mi
10:50 PM66 °FClear.2 mph83%30.09 "Hg10 mi
10:20 PM68 °FSunny.1 mph83%30.09 "Hg10 mi
9:50 PM72 °FSunny.1 mph73%30.09 "Hg10 mi
9:20 PM79 °FSunny.2 mph51%30.07 "Hg10 mi
8:50 PM81 °FSunny.2 mph45%30.07 "Hg10 mi
8:20 PM82 °FSunny.3 mph45%30.07 "Hg10 mi
7:50 PM84 °FPassing clouds.5 mph43%30.07 "HgN/A
6:50 PM86 °FPassing clouds.6 mph40%30.07 "HgN/A
6:20 PM86 °FSunny.5 mph35%30.07 "Hg10 mi
5:50 PM86 °FPassing clouds.7 mph38%30.07 "HgN/A
4:50 PM86 °FSunny.7 mph33%30.09 "Hg10 mi
4:20 PM86 °FPassing clouds.5 mph31%30.09 "HgN/A
3:50 PM86 °FPassing clouds.3 mph35%30.09 "HgN/A
2:50 PM86 °FPassing clouds.5 mph35%30.09 "HgN/A
2:20 PM84 °FPassing clouds.6 mph40%30.09 "HgN/A
1:50 PM84 °FPassing clouds.7 mph45%30.12 "HgN/A
1:20 PM82 °FPassing clouds.3 mph45%30.12 "HgN/A
12:50 PM82 °FSunny.5 mph48%30.12 "Hg10 mi
12:20 PM81 °FSunny.6 mph51%30.12 "Hg10 mi
11:50 AM79 °FSunny.5 mph51%30.15 "Hg10 mi
11:20 AM77 °FSunny.2 mph54%30.15 "Hg10 mi
10:50 AM75 °FSunny.2 mph57%30.15 "Hg10 mi
10:20 AM75 °FSunny.1 mph65%30.15 "Hg10 mi
9:50 AM72 °FPassing clouds.3 mph61%30.15 "HgN/A
9:20 AM72 °FPassing clouds.5 mph61%30.18 "HgN/A
8:50 AM70 °FSunny.6 mph64%30.18 "Hg10 mi
8:20 AM68 °FSunny.2 mph69%30.18 "Hg10 mi
7:50 AM64 °FSunny.1 mph78%30.15 "Hg10 mi
7:20 AM61 °FSunny.2 mph88%30.15 "Hg10 mi
6:50 AM57 °FSunny.2 mph94%30.15 "Hg10 mi
6:20 AM54 °FClear.2 mph100%30.15 "Hg10 mi
5:50 AM54 °FClear.2 mph100%30.15 "Hg10 mi
5:20 AM54 °FCool.1 mph100%30.15 "Hg5 mi
4:50 AM55 °FClear.1 mph94%30.15 "Hg10 mi
4:20 AM55 °FClear.1 mph94%30.15 "Hg10 mi
Weather by CustomWeather, © 2015

See weather overviewHow to use our weather pages